User: anonymous   Login
Location: Unspecified
(0.0000°N, 0.0000°E)
Time: 01:05:27
(UTC+02:00)
Language:

AO-40 - Orbit

View from above orbital plane
View from above orbital plane
View from above satellite
View from above satellite

Ground track
Ground track

The orbit data is extracted from the following two-line orbital elements,

1 26609U 00072B   16148.51748095 -.00000180  00000-0  00000+0 0  9990
2 26609   8.3554 301.8482 7973851 342.5601   0.9108  1.25587178 71490
Epoch (UTC): 27 May 2016 12:25:10
Eccentricity: 0.7973851
inclination: 8.3554°
perigee height: 974 km
apogee height: 58846 km
right ascension of ascending node: 301.8482°
argument of perigee: 342.5601°
revolutions per day: 1.25587178
mean anomaly at epoch: 0.9108°
orbit number at epoch: 7149

The dashed part of the orbit path shows where the satellite is in the earth's shadow,  

DLR